Tracking 28790 objects as of 19-Apr-2024
HD Live streaming from Space Station
objects crossing your sky now

COSMOS 2251 DEB

Track COSMOS 2251 DEB now!
10-day predictions


NORAD ID: 34756
Int'l Code: 1993-036AAA
Perigee: 767.6 km
Apogee: 1,287.2 km
Inclination: 74.0 °
Period: 105.6 minutes
Semi major axis: 7398 km
RCS: 0.0037 m2 (small)
Launch date: June 16, 1993
Source: Commonwealth of Independent States (former USSR) (CIS)
Launch site: PLESETSK MISSILE AND SPACE COMPLEX (PKMTR)

Note: This is SATELLITE DEBRIS
Your satellite tracking list
Your tracking list is empty




NASA's NSSDC Master Catalog

Two Line Element Set (TLE):
1 34756U 93036AAA 24110.16950670  .00005411  00000-0  44700-2 0  9996
2 34756  74.0088  12.9636 0351129  15.1369 345.9931 13.64251078753014
Source of the keplerian elements: AFSPC